Le nostre stazioni meteo in Italia

Pubblicità
Il mio iltempo24.it
Cluanie Inn No 3, Gran Bretagna (99117): Temperatura & dewpoint: 13.08.2018 09:00:00 - 19.08.2018 09:00:00 (BST)Cluanie Inn No 3, Gran Bretagna (99117): precipitazioni: 13.08.2018 09:00:00 - 19.08.2018 09:00:00 (BST)
Data & Tempo tt [°C] td [°C] rr [mm]
19.08.2018 09:00:00 12,2 8,4 0,0
19.08.2018 08:00:00 11,4 8,2 0,0
19.08.2018 07:00:00 10,8 8,4 0,0
19.08.2018 06:00:00 10,7 8,4 0,0
19.08.2018 05:00:00 10,9 8,7 0,0
19.08.2018 04:00:00 10,8 8,7 0,0
19.08.2018 03:00:00 10,6 9,0 0,0
19.08.2018 02:00:00 10,8 9,1 0,0
19.08.2018 01:00:00 10,7 8,9 0,0
19.08.2018 00:00:00 11,1 8,6 0,0
18.08.2018 23:00:00 11,3 8,1 0,0
18.08.2018 22:00:00 12,3 7,5 0,0
18.08.2018 21:00:00 12,3 8,0 0,0
18.08.2018 20:00:00 12,3 7,5 0,0
18.08.2018 19:00:00 13,0 7,3 0,0
18.08.2018 18:00:00 13,2 7,4 0,0
18.08.2018 17:00:00 13,7 7,8 0,0
18.08.2018 16:00:00 14,0 8,3 0,0
18.08.2018 15:00:00 13,8 7,8 0,0
18.08.2018 14:00:00 13,8 8,5 0,0
18.08.2018 13:00:00 14,1 8,8 0,0
18.08.2018 12:00:00 13,6 8,5 0,0
18.08.2018 11:00:00 13,5 8,3 0,0
18.08.2018 10:00:00 13,3 8,2 0,0
18.08.2018 09:00:00 13,4 7,6 0,0
18.08.2018 08:00:00 13,1 8,5 0,0
18.08.2018 07:00:00 12,3 8,6 1,2
18.08.2018 06:00:00 12,5 9,5 0,0
18.08.2018 05:00:00 12,7 8,6 0,2
18.08.2018 04:00:00 13,0 8,4 0,0
18.08.2018 03:00:00 13,3 8,4 0,0
18.08.2018 02:00:00 13,5 8,5 0,0
18.08.2018 01:00:00 13,0 8,4 0,0
18.08.2018 00:00:00 13,2 8,4 0,0
17.08.2018 23:00:00 13,1 8,2 0,0
17.08.2018 22:00:00 13,4 8,4 0,0
17.08.2018 21:00:00 13,4 9,4 0,0
17.08.2018 20:00:00 13,3 9,2 0,0
17.08.2018 19:00:00 13,4 10,8 0,2
17.08.2018 18:00:00 14,8 11,2 0,2
17.08.2018 17:00:00 14,2 12,5 1,0
17.08.2018 16:00:00 13,5 12,1 1,0
17.08.2018 15:00:00 13,6 11,6 0,2
17.08.2018 14:00:00 13,0 10,9 0,4
17.08.2018 13:00:00 12,4 11,4 0,4
17.08.2018 12:00:00 12,6 10,9 0,8
17.08.2018 11:00:00 11,7 10,8 0,6
17.08.2018 10:00:00 11,5 10,0 0,4
17.08.2018 09:00:00 10,9 9,7 0,4
17.08.2018 08:00:00 11,0 8,8 0,4
17.08.2018 07:00:00 10,2 8,6 0,8
17.08.2018 06:00:00 10,8 7,7 0,2
17.08.2018 05:00:00 10,5 8,3 1,4
17.08.2018 04:00:00 11,0 8,0 0,4
17.08.2018 03:00:00 11,0 8,8 2,6
17.08.2018 02:00:00 10,8 8,9 1,8
17.08.2018 01:00:00 10,4 8,8 1,6
17.08.2018 00:00:00 11,0 8,4 0,6
16.08.2018 23:00:00 11,0 8,6 4,4
16.08.2018 22:00:00 10,7 8,6 1,0
16.08.2018 21:00:00 11,1 8,4 0,8
16.08.2018 20:00:00 11,2 9,0 1,2
16.08.2018 19:00:00 11,2 9,0 0,8
16.08.2018 18:00:00 11,2 9,3 1,8
16.08.2018 17:00:00 11,9 8,7 0,4
16.08.2018 16:00:00 13,4 8,5 0,0
16.08.2018 15:00:00 13,0 8,0 0,0
16.08.2018 14:00:00 13,7 8,4 0,0
16.08.2018 13:00:00 12,5 10,2 1,4
16.08.2018 12:00:00 11,7 9,3 1,0
16.08.2018 11:00:00 12,4 9,1 1,0
16.08.2018 10:00:00 11,6 10,1 1,4
16.08.2018 09:00:00 12,1 8,6 0,0
16.08.2018 08:00:00 11,1 7,9 0,8
16.08.2018 07:00:00 10,5 8,2 0,8
16.08.2018 06:00:00 10,7 8,3 0,2
16.08.2018 05:00:00 11,5 7,6 0,2
16.08.2018 04:00:00 11,3 7,5 0,0
16.08.2018 03:00:00 11,6 7,5 0,0
16.08.2018 02:00:00 11,4 7,0 0,0
16.08.2018 01:00:00 11,8 6,6 0,0
16.08.2018 00:00:00 12,0 6,5 0,0
15.08.2018 23:00:00 12,1 7,2 0,0
15.08.2018 22:00:00 12,2 8,2 0,6
15.08.2018 21:00:00 12,5 10,1 0,6
15.08.2018 20:00:00 12,8 10,2 1,2
15.08.2018 19:00:00 12,8 9,2 0,4
15.08.2018 18:00:00 13,2 8,8 0,2
15.08.2018 17:00:00 13,8 8,2 0,2
15.08.2018 16:00:00 13,5 8,9 0,6
15.08.2018 15:00:00 12,7 8,3 1,4
15.08.2018 14:00:00 14,7 8,5 0,0
15.08.2018 13:00:00 15,5 9,3 0,0
15.08.2018 12:00:00 14,9 10,4 0,0
15.08.2018 11:00:00 15,0 8,6 0,0
15.08.2018 10:00:00 15,2 12,5 0,4
15.08.2018 09:00:00 15,0 12,1 0,0
15.08.2018 08:00:00 15,5 10,9 0,2
15.08.2018 07:00:00 13,2 13,0 0,4
15.08.2018 06:00:00 13,1 12,7 0,4
15.08.2018 05:00:00 12,7 12,6 1,0
15.08.2018 04:00:00 12,7 12,5 0,6
15.08.2018 03:00:00 13,1 11,6 0,0
15.08.2018 02:00:00 13,7 11,2 0,0
15.08.2018 01:00:00 12,7 10,9 0,0
15.08.2018 00:00:00 13,0 9,9 0,0
14.08.2018 23:00:00 13,6 9,2 0,0
14.08.2018 22:00:00 13,6 9,9 0,0
14.08.2018 21:00:00 13,7 9,7 0,0
14.08.2018 20:00:00 14,0 10,5 0,0
14.08.2018 19:00:00 14,9 11,1 0,0
14.08.2018 18:00:00 15,3 11,7 0,0
14.08.2018 17:00:00 16,1 12,8 0,0
14.08.2018 16:00:00 16,1 13,5 0,2
14.08.2018 15:00:00 16,3 14,5 0,2
14.08.2018 14:00:00 16,7 14,7 0,0
14.08.2018 13:00:00 16,2 13,7 0,0
14.08.2018 12:00:00 15,5 14,6 1,0
14.08.2018 11:00:00 13,7 12,8 2,4
14.08.2018 10:00:00 14,4 11,9 0,2
14.08.2018 09:00:00 13,8 11,6 0,0
14.08.2018 08:00:00 12,9 12,4 0,0
14.08.2018 07:00:00 12,5 11,9 0,2
14.08.2018 06:00:00 12,5 11,6 0,0
14.08.2018 05:00:00 12,7 11,5 0,0
14.08.2018 04:00:00 12,6 11,7 0,0
14.08.2018 03:00:00 12,5 11,7 0,0
14.08.2018 02:00:00 12,5 11,8 0,0
14.08.2018 01:00:00 12,7 11,3 0,0
14.08.2018 00:00:00 12,9 11,2 0,0
13.08.2018 23:00:00 13,0 11,1 0,0
13.08.2018 22:00:00 13,0 11,7 0,0
13.08.2018 21:00:00 13,3 12,2 0,0
13.08.2018 20:00:00 14,8 12,2 0,0
13.08.2018 19:00:00 15,1 12,2 0,0
13.08.2018 18:00:00 15,9 12,6 0,0
13.08.2018 17:00:00 16,0 13,9 0,0
13.08.2018 16:00:00 17,5 14,3 0,0
13.08.2018 15:00:00 16,8 12,1 0,0
13.08.2018 14:00:00 16,2 12,7 0,0
13.08.2018 13:00:00 15,4 12,5 0,0
13.08.2018 12:00:00 14,9 13,0 0,0
13.08.2018 11:00:00 13,7 11,8 0,0
13.08.2018 10:00:00 13,3 11,6 0,0
13.08.2018 09:00:00 12,8 11,5 0,0

tt = Temperatura
td = dewpoint
rr = precipitazioni

Stazioni seguenti

WeatherPro
AMSI
MeteoEarth